Location: Burgwalden
(48.2830°N, 10.7576°E)
Time: 01:52:19
(UTC+00:00)

Lacrosse 4 Rocket - Pass Details

Date: 26 September 2023
Orbit: 528 x 604 km, 68.0° (Epoch: 04 December)

Event Time Altitude Azimuth Distance (km) Brightness Sun altitude
Exits shadow 02:28:54 40° 1° (N) 857 2.4 -26.2°
Drops below altitude 10° 02:31:54 10° 26° (NNE) 1,905 4.8 -25.8°
Sets 02:34:13 0° 31° (NNE) 2,822 5.9 -25.4°
